Lapse_Rate
7.0 7.1 7.1 7.2 7.2 7.2 7.3 7.3 7.4 7.3 7.4 7.3 7.3 7.1 7.1 7.0 7.1 7.2 7.3 7.2 7.2 7.1 7.0 7.1 7.1 7.1 7.2 7.5 7.6 7.8 7.8 7.8 7.7 7.6 7.4 7.3 7.2 7.1 7.0 7.0 7.0 7.0 6.9 6.8 6.8 6.8 6.7
7.2 7.2 7.1 7.2 7.2 7.3 7.3 7.3 7.3 7.2 7.2 7.2 7.2 7.1 7.0 7.0 7.1 7.2 7.2 7.1 7.1 7.0 7.1 7.1 7.0 7.1 7.2 7.5 7.6 7.7 7.7 7.8 7.7 7.7 7.7 7.7 7.5 7.5 7.4 7.4 7.2 7.1 7.0 7.0 6.9 6.9 6.8
7.1 7.2 7.2 7.2 7.3 7.3 7.2 7.2 7.2 7.1 7.1 7.1 7.0 6.9 7.0 7.0 7.0 7.1 7.1 7.0 7.0 7.1 7.1 6.9 6.9 6.9 7.2 7.5 7.6 7.7 7.8 7.9 8.1 8.0 8.1 8.1 7.9 7.8 7.8 7.5 7.4 7.3 7.3 7.2 7.0 7.0 7.0
7.1 7.2 7.2 7.3 7.2 7.2 7.2 7.2 7.1 7.1 7.0 6.9 6.9 6.9 6.9 6.8 6.8 6.9 6.9 7.0 7.0 7.0 6.9 6.8 6.8 6.9 7.1 7.4 7.6 7.7 7.9 8.2 8.3 8.4 8.3 8.1 8.0 7.9 7.8 7.7 7.6 7.5 7.4 7.2 7.1 7.1 7.0
7.0 7.2 7.2 7.2 7.2 7.1 7.1 7.1 7.1 6.9 6.9 6.9 7.0 7.0 6.9 6.9 6.8 6.7 6.8 6.9 7.0 6.9 6.8 6.8 6.8 6.9 7.1 7.4 7.6 7.7 8.0 8.2 8.3 8.3 8.2 8.1 8.0 7.8 7.7 7.6 7.5 7.3 7.1 7.0 6.9 6.9 6.8
6.9 7.1 7.2 7.2 7.2 7.1 7.1 7.0 7.0 6.9 6.9 7.0 7.1 7.1 7.0 6.9 6.8 6.7 6.7 6.9 6.9 6.9 6.8 6.9 6.9 7.1 7.2 7.3 7.6 7.8 8.0 8.2 8.2 8.2 8.2 8.1 8.0 7.8 7.7 7.5 7.3 7.0 6.9 6.9 6.8 6.9 6.9
6.8 6.9 7.1 7.1 7.1 7.1 7.1 7.0 7.0 7.0 7.0 7.1 7.2 7.1 7.0 6.9 6.8 6.8 6.8 7.0 7.0 7.0 6.9 6.9 7.0 7.1 7.2 7.3 7.5 7.8 8.0 8.1 8.1 8.1 8.1 8.1 8.0 7.8 7.6 7.4 7.2 7.1 6.8 6.7 6.8 6.7 7.0
6.8 6.8 7.0 7.1 7.1 7.1 7.0 7.0 7.0 7.1 7.1 7.1 7.2 7.1 7.0 6.9 6.9 6.8 6.9 7.1 7.1 7.0 7.0 7.1 7.0 7.2 7.3 7.4 7.6 7.8 7.9 7.9 8.0 8.0 8.0 8.1 8.1 7.9 7.7 7.4 7.2 7.1 6.9 6.7 6.8 6.8 6.5
6.7 6.7 6.9 7.0 7.1 7.1 7.0 7.0 7.0 7.0 7.0 7.1 7.1 7.1 7.0 6.9 6.8 6.8 6.9 7.1 7.1 7.2 7.2 7.2 7.1 7.2 7.3 7.5 7.6 7.7 7.8 7.8 7.9 8.0 8.0 7.9 8.0 7.9 7.6 7.4 7.2 7.0 6.8 6.6 6.4 6.7 6.8
6.7 6.8 6.9 7.0 7.0 7.0 7.0 7.0 7.0 7.0 7.0 7.1 7.1 7.0 7.0 6.9 6.8 6.9 7.0 7.1 7.2 7.2 7.1 7.1 7.1 7.3 7.5 7.5 7.6 7.7 7.8 7.8 7.9 7.9 7.9 7.9 8.0 7.8 7.6 7.4 7.2 6.9 6.7 6.5 6.4 6.2 6.0
6.7 6.8 6.8 6.9 7.0 7.0 7.0 7.0 7.0 7.0 7.0 7.0 7.0 7.0 7.0 7.0 6.9 6.8 6.9 7.1 7.2 7.3 4.8 7.1 7.1 7.2 7.4 7.5 7.6 7.9 7.8 7.9 7.8 7.7 7.7 7.9 7.7 7.6 7.5 7.4 7.2 7.0 6.7 6.4 6.3 5.9 5.7
6.7 6.7 6.8 6.8 7.0 7.0 7.0 7.0 7.0 7.0 7.0 7.0 7.0 7.0 7.0 7.0 6.9 6.9 7.0 7.0 7.2 7.2 6.9 7.3 7.3 7.3 7.4 7.5 7.6 7.7 7.7 7.7 7.7 7.6 7.7 7.7 7.7 7.5 7.6 7.4 7.1 6.8 6.6 6.3 5.9 5.3 3.9
6.7 6.7 6.8 6.9 6.9 7.0 7.0 7.0 7.0 7.0 7.0 7.0 7.0 7.1 7.1 7.1 7.1 7.1 7.1 7.1 7.1 7.1 7.4 7.2 7.3 7.4 7.5 7.6 7.6 7.7 7.7 7.5 7.5 7.5 7.7 7.6 7.7 7.5 7.5 7.2 7.0 6.8 6.5 6.0 4.1 3.7 3.7
6.8 6.8 6.9 6.9 6.9 7.0 7.0 7.1 7.1 7.1 7.1 7.0 7.1 7.1 7.2 7.2 7.1 7.2 7.2 7.2 7.1 7.5 7.6 7.5 7.5 7.5 7.5 7.6 7.6 7.5 7.5 7.5 7.7 7.5 7.3 7.4 7.5 7.4 7.3 7.1 6.8 6.6 6.3 6.3 4.0 3.8 4.3
6.9 7.0 7.0 6.9 7.0 7.1 7.2 7.2 7.2 7.2 7.2 7.2 7.2 7.2 7.2 7.2 7.2 7.2 7.2 7.1 7.4 7.5 7.5 7.4 7.5 7.5 7.4 7.5 7.4 7.3 7.5 7.6 7.5 7.4 7.4 7.3 7.1 7.3 7.2 6.9 6.6 6.1 6.2 6.2 5.8 4.2 3.5
6.8 6.9 7.0 7.0 7.0 7.1 7.2 7.2 7.3 7.3 7.3 7.3 7.3 7.3 7.3 7.3 7.3 7.3 7.2 7.2 7.4 7.4 7.3 7.3 7.2 7.3 7.3 7.3 7.2 7.2 7.3 7.5 7.4 7.3 7.2 7.0 6.7 7.0 7.1 6.7 6.6 6.4 5.9 5.7 5.6 2.8 3.7
6.7 6.8 6.9 7.0 7.0 7.1 7.1 7.1 7.2 7.3 7.3 7.3 7.3 7.3 7.3 7.3 7.3 7.3 7.3 7.3 7.4 7.3 7.2 7.1 7.2 7.1 7.1 7.0 7.1 7.0 7.1 7.4 7.2 7.2 7.0 6.8 6.3 6.2 6.5 6.6 6.7 6.1 5.7 5.5 5.4 5.2 3.8
6.7 6.8 6.9 6.9 6.9 6.9 7.0 7.1 7.1 7.1 7.2 7.3 7.4 7.4 7.3 7.3 7.3 7.3 7.3 7.2 7.2 7.1 7.1 7.0 7.1 7.1 7.0 6.9 6.8 6.8 6.9 7.1 7.0 6.9 6.6 6.5 6.2 5.9 6.0 6.1 6.1 5.6 5.5 5.4 5.3 4.7 4.9
7.1 6.9 6.9 6.8 6.8 6.8 6.9 7.0 7.0 7.1 7.1 7.2 7.2 7.3 7.3 7.1 7.1 7.1 7.0 7.0 6.9 7.0 7.0 6.9 6.8 6.9 6.7 6.7 6.4 6.6 6.6 6.7 6.6 6.4 6.2 6.0 5.6 5.5 5.5 5.6 5.8 5.3 5.6 5.2 5.2 5.1 4.8
6.9 6.9 6.7 6.8 6.8 6.7 6.8 6.7 6.8 6.9 7.0 7.2 7.1 7.1 7.2 7.0 6.9 6.8 6.8 6.9 6.8 6.8 6.8 6.8 6.7 6.6 6.5 6.5 6.4 6.0 6.3 6.1 6.1 5.9 5.7 5.4 5.0 5.3 5.6 6.2 5.7 5.4 5.5 5.4 5.0 4.6 5.0
6.6 6.7 6.7 6.7 6.8 6.8 6.6 6.6 6.8 6.8 6.8 6.8 6.9 6.8 6.8 6.9 6.9 6.7 6.7 6.7 6.6 6.5 6.6 6.5 6.3 6.1 5.9 5.8 5.9 5.6 5.4 5.3 5.3 5.3 5.2 5.1 4.8 5.0 5.0 5.1 5.0 4.9 4.9 4.9 4.8 5.0 4.9
6.4 6.4 6.5 6.7 6.8 6.6 6.5 6.4 6.4 6.6 6.7 6.6 6.6 6.6 6.7 6.6 6.6 6.4 6.2 6.3 6.4 6.4 6.3 6.1 5.7 5.5 5.4 5.3 5.0 4.7 4.8 4.7 4.4 4.6 4.6 4.6 4.5 4.5 4.4 4.6 4.8 4.5 4.6 4.8 4.9 5.0 4.7
6.1 6.3 6.3 6.1 6.1 6.3 6.4 6.5 6.6 6.6 6.6 6.7 6.7 6.8 6.8 6.6 6.6 6.4 6.0 5.8 5.6 5.6 5.5 5.3 5.1 5.0 5.0 4.8 4.7 4.6 4.5 4.3 4.4 4.3 4.4 4.5 4.5 4.4 3.9 4.3 4.2 3.5 4.2 4.9 5.0 5.2 4.8
5.9 6.0 5.9 5.8 5.8 5.9 6.0 6.4 6.6 6.8 7.0 6.9 6.8 6.8 6.7 6.4 6.2 6.0 5.6 5.4 5.3 5.0 4.8 4.9 4.6 4.3 4.2 4.3 4.4 4.4 4.3 4.5 4.6 4.8 4.6 4.1 4.3 4.3 4.1 4.2 3.9 4.3 4.3 4.6 5.0 5.0 5.0
5.4 5.4 5.6 5.7 5.7 5.9 5.9 6.1 6.1 6.2 6.4 6.3 6.1 6.1 6.0 6.1 6.0 5.8 5.3 5.2 4.9 4.7 4.4 4.2 4.3 4.1 4.0 3.9 3.8 3.7 4.0 4.2 4.3 4.5 4.7 4.9 4.3 4.2 4.3 4.5 4.7 4.0 4.4 4.6 5.2 5.1 5.7
5.4 5.7 5.8 5.6 5.5 5.2 5.1 5.2 5.2 5.6 5.6 5.6 5.6 5.5 5.2 5.2 5.4 5.2 5.2 4.9 4.7 4.7 4.8 4.4 4.1 3.9 3.9 3.7 3.2 3.2 3.4 3.6 3.8 4.2 4.5 4.8 4.5 4.7 5.1 5.3 4.8 5.1 5.4 5.4 5.6 5.1 5.9
5.2 5.5 5.5 5.4 5.5 5.4 5.7 6.0 6.0 6.0 5.9 5.7 5.6 5.3 5.2 5.0 5.0 4.8 4.6 4.4 4.5 4.3 4.2 4.2 4.1 4.2 3.9 3.6 3.3 3.3 3.3 3.5 3.7 3.9 4.2 4.5 4.6 4.9 5.2 5.9 5.8 6.0 6.2 6.3 6.1 6.0 6.0
5.6 5.8 5.8 6.1 6.3 6.3 6.3 6.3 6.3 6.1 6.0 5.7 5.4 5.0 5.0 4.7 4.7 4.5 4.3 4.4 4.3 4.2 4.1 4.0 3.6 3.4 3.4 3.6 3.3 3.5 3.6 3.8 3.9 4.1 4.1 4.2 4.8 5.2 5.7 5.8 5.7 6.5 6.3 6.6 6.7 6.5 6.4
6.1 6.4 6.7 6.9 6.7 6.5 6.4 6.4 6.3 6.2 6.1 5.8 5.6 5.4 5.1 4.9 4.9 4.8 4.8 4.8 4.7 4.8 4.6 4.3 4.1 4.1 3.8 3.6 3.5 3.4 3.6 3.8 3.9 3.6 4.5 4.5 5.3 5.5 5.7 5.9 6.4 6.6 6.8 6.9 7.2 7.4 6.8
Wind_Speed
9 11 12 13 13 12 12 13 13 13 12 11 10 10 10 10 9 9 9 8 8 8 8 8 8 7 2 2 1 4 10 8 3 1 3 2 2 1 3 3 1 1 1 1 1 2 3
10 11 12 13 13 13 14 14 13 14 13 12 11 10 10 10 9 9 9 9 9 9 8 8 7 5 2 1 0 6 8 4 4 3 3 5 1 0 4 2 2 1 0 1 0 3 2
10 11 12 13 13 12 13 14 14 14 14 12 11 10 11 10 10 10 9 10 9 9 8 8 5 2 1 2 1 6 6 1 3 2 2 2 1 1 2 2 1 1 3 2 1 2 2
9 11 12 13 13 13 14 15 15 16 15 13 12 12 13 12 11 11 11 11 10 8 7 6 4 2 1 1 1 3 5 2 4 1 1 0 2 4 3 1 4 4 4 5 1 3 2
9 11 13 13 14 14 15 15 16 16 16 15 14 15 15 14 13 12 12 10 8 7 5 5 1 1 1 1 2 2 4 2 5 2 1 1 2 3 4 3 4 7 1 3 6 6 3
11 12 13 13 14 15 16 16 16 17 17 17 16 16 16 16 15 13 14 4 2 6 2 2 1 2 1 2 3 3 2 3 2 2 2 3 5 4 5 5 2 3 3 3 5 4 2
10 12 12 13 14 15 16 17 18 18 18 18 17 17 17 16 14 11 6 3 4 3 7 1 0 1 2 6 2 4 4 4 1 3 2 3 5 1 2 1 1 3 1 3 4 2 7
10 11 13 13 14 15 16 18 19 19 20 20 18 17 17 16 14 9 3 4 2 1 0 1 1 1 0 1 3 3 6 1 1 2 2 5 1 2 2 1 2 1 2 5 5 4 2
11 11 13 14 15 17 18 19 19 20 21 21 19 17 17 17 10 5 4 3 1 1 2 0 1 1 1 2 1 4 4 1 3 3 4 3 2 2 2 1 1 2 3 1 4 8 0
11 11 13 14 16 17 18 19 20 20 21 20 19 17 18 19 5 1 3 2 2 1 4 2 1 1 1 2 1 1 1 1 4 3 4 4 1 2 1 1 3 2 2 1 2 4 3
11 13 14 15 16 17 19 20 21 21 20 20 18 15 17 8 4 3 1 2 2 2 4 1 1 1 1 1 1 2 1 2 3 3 5 2 2 2 3 2 1 3 2 1 3 4 4
11 13 14 15 17 19 20 21 22 22 20 19 17 15 12 5 3 1 1 1 2 6 4 1 1 2 2 1 1 1 2 6 2 4 5 2 1 2 0 1 1 3 3 4 4 2 2
11 13 15 17 18 19 20 22 23 22 21 19 15 12 5 1 0 2 1 2 5 4 2 2 2 3 2 2 2 2 3 5 3 2 2 1 1 0 1 1 2 4 5 4 5 4 5
13 14 16 17 19 20 21 23 24 24 23 20 14 5 5 2 2 1 2 5 2 2 2 2 2 2 2 3 1 1 2 1 1 4 3 3 5 4 2 3 5 2 5 5 5 3 4
14 15 17 18 20 21 22 24 26 26 24 22 3 2 2 4 2 2 5 4 6 4 1 4 3 1 1 0 1 2 3 4 5 4 7 4 4 1 3 2 2 2 2 3 6 1 1
15 16 18 20 21 22 24 25 26 28 26 13 2 2 2 5 2 4 5 5 2 1 0 1 3 1 2 2 1 1 2 4 3 3 2 3 2 2 1 2 3 3 1 3 2 0 5
16 17 19 21 23 25 26 26 26 28 29 3 3 3 3 4 3 5 3 4 1 1 0 1 2 3 3 2 2 3 3 3 3 4 4 3 3 1 1 6 7 1 1 3 3 4 5
17 19 20 23 25 26 28 28 27 27 27 7 2 2 3 2 3 1 2 1 0 1 0 1 1 2 2 1 3 4 5 3 6 7 6 1 5 3 6 1 1 2 5 4 4 5 4
19 20 22 24 27 29 30 31 31 28 19 2 2 1 2 3 3 2 3 1 0 0 1 0 1 2 0 3 2 4 3 2 5 6 6 6 1 3 6 4 2 2 4 3 3 2 6
20 22 23 26 28 30 32 33 34 32 20 3 3 3 4 4 1 4 2 1 1 1 2 1 1 1 0 3 4 4 3 2 4 3 5 5 3 8 8 5 5 2 5 6 6 3 3
21 22 24 27 30 32 34 35 36 35 18 3 4 1 3 2 3 1 2 1 2 2 1 0 1 3 4 2 3 5 2 1 1 3 4 3 6 6 7 8 5 8 9 10 12 15 12
22 23 25 27 29 32 34 36 38 38 15 4 3 2 2 1 2 2 2 1 1 4 1 1 2 3 4 4 6 6 1 2 6 2 5 3 4 1 5 10 10 20 13 12 16 19 18
21 23 24 26 28 31 33 35 35 40 14 4 3 2 2 3 2 3 3 4 4 4 3 1 1 3 5 6 4 7 6 6 6 6 7 5 3 3 17 4 5 11 16 17 2 2 2
21 21 22 25 27 29 30 32 33 32 20 3 2 2 3 1 2 3 5 4 5 5 4 6 5 3 3 7 6 6 7 13 13 14 7 8 4 2 9 1 15 5 2 4 9 5 6
20 21 22 24 25 27 28 30 31 26 21 6 3 3 2 1 2 4 9 4 4 6 4 4 3 2 6 5 4 6 4 4 1 3 3 6 7 5 6 8 2 2 4 3 4 3 3
20 20 22 22 22 24 25 26 27 28 18 5 5 1 3 4 1 4 2 4 1 3 7 3 4 5 6 3 2 2 3 3 4 3 4 2 1 4 1 5 6 2 2 3 3 3 4
17 19 20 21 22 23 23 24 24 25 21 7 2 7 3 3 2 3 3 1 2 2 2 4 6 7 4 2 1 3 3 2 2 4 4 3 2 6 8 7 1 3 3 3 3 4 3
18 18 18 18 19 19 20 21 21 22 22 5 0 9 2 2 2 3 3 1 2 2 2 4 3 4 4 4 1 2 1 2 3 2 2 3 2 4 1 3 6 1 2 4 4 4 5
17 16 16 17 17 18 18 19 18 18 18 9 3 8 3 3 3 0 1 2 2 3 3 2 2 2 1 2 2 2 3 3 2 4 1 3 4 2 5 3 2 3 3 5 8 6 4
Wind_Direction
41 44 36 30 26 18 13 10 6 353 348 346 349 347 344 336 320 316 308 305 306 311 312 314 318 318 297 71 283 320 345 349 18 4 43 28 73 63 139 126 83 129 194 170 176 289 263
41 41 38 31 25 19 13 10 4 354 353 354 351 346 337 322 314 302 299 308 311 311 314 311 302 311 241 153 228 350 348 2 24 20 23 35 111 90 102 91 124 161 170 350 42 316 286
39 38 35 31 25 17 9 7 3 358 356 353 344 343 341 322 314 310 312 306 309 320 310 296 281 249 53 149 41 345 3 24 356 32 53 45 355 103 124 93 157 99 18 13 349 323 330
40 36 30 27 19 12 9 6 2 359 358 352 342 341 341 330 327 321 313 306 307 312 305 284 251 225 165 78 330 19 349 25 4 335 82 336 334 97 61 124 29 32 47 10 348 357 28
40 34 27 22 14 11 8 3 1 359 357 350 345 343 341 333 329 324 318 311 301 294 276 271 234 116 258 245 41 331 36 343 304 293 338 330 53 84 39 63 21 9 285 334 329 33 323
39 30 25 15 12 9 5 1 359 358 354 354 345 337 341 336 330 326 322 288 337 325 229 233 283 31 9 317 319 348 349 3 11 331 40 55 49 67 34 54 221 284 337 319 263 340 2
38 29 22 13 10 8 4 0 358 354 354 350 345 337 337 334 335 342 6 41 32 337 48 103 150 290 356 304 291 10 12 344 353 36 49 12 67 107 168 90 111 131 200 270 259 38 347
39 29 18 13 9 7 3 0 358 355 352 349 346 337 337 333 334 346 83 81 86 200 55 114 131 103 108 100 1 349 4 97 36 92 5 26 96 177 145 133 132 177 279 290 286 8 9
36 30 20 11 9 7 1 359 356 355 352 349 345 339 335 330 322 50 77 113 5 344 115 347 279 62 280 37 99 308 12 321 70 83 29 140 151 149 179 105 47 235 201 236 247 324 86
35 28 23 13 10 6 1 357 355 354 351 348 346 341 338 334 68 162 53 335 358 95 68 280 324 356 28 83 351 296 25 78 34 135 109 92 202 192 151 191 128 280 128 98 302 34 279
32 24 23 15 9 5 1 356 353 351 349 348 346 341 343 29 151 73 182 332 313 70 20 280 289 153 94 70 11 14 21 7 117 111 90 231 169 185 212 207 146 224 11 271 117 88 47
30 23 20 17 9 5 360 354 348 347 348 347 344 344 346 21 49 47 330 19 64 43 263 305 318 328 353 21 17 75 53 40 97 95 52 90 6 42 9 335 243 353 90 49 53 95 22
32 27 20 17 10 5 358 351 348 346 345 343 342 343 30 63 143 327 13 58 38 126 351 337 319 27 360 310 337 47 39 11 155 92 212 80 226 256 33 93 3 66 56 333 351 5 226
39 30 25 17 11 5 359 351 347 344 343 339 335 353 35 55 354 53 61 54 169 227 243 357 311 314 250 16 259 357 83 284 221 81 98 146 307 171 19 147 181 75 138 153 246 236 280
44 33 27 19 11 5 360 355 349 345 343 339 32 21 35 331 19 67 74 71 212 194 304 354 309 316 296 17 236 358 203 191 202 188 161 151 271 78 53 70 89 172 180 144 100 44 42
44 37 28 19 11 6 1 357 352 347 347 343 78 56 336 335 36 62 76 221 219 189 319 155 228 179 249 273 299 311 197 225 193 211 167 179 349 18 103 96 35 142 147 65 11 261 242
45 38 31 23 14 8 3 358 358 352 349 352 59 59 278 9 60 51 152 219 244 241 212 191 252 279 236 271 223 240 247 235 170 155 95 133 108 256 128 199 181 44 336 33 124 171 203
46 41 33 26 17 11 5 2 1 359 351 44 74 59 312 15 48 36 114 265 332 302 351 307 204 208 230 279 257 246 232 217 163 153 166 149 146 217 223 294 114 199 212 157 147 249 235
49 41 34 27 21 14 8 3 359 1 4 79 66 257 330 80 92 355 298 287 210 305 246 252 272 207 197 260 283 219 261 95 158 157 168 198 257 352 322 359 30 216 227 169 124 78 211
51 42 35 29 25 19 12 7 1 357 2 86 70 22 338 44 32 115 24 293 280 178 252 211 246 61 38 260 218 278 260 204 194 217 151 148 181 184 225 206 134 193 204 208 183 196 233
50 42 38 34 29 24 18 10 5 359 1 94 35 240 185 318 349 22 151 283 292 309 345 284 268 225 175 277 288 234 254 339 175 222 144 153 217 211 241 238 192 212 220 193 209 239 247
51 43 40 36 33 29 24 18 10 3 2 80 86 67 14 289 326 338 26 21 358 333 270 311 231 327 181 206 226 278 323 215 229 85 178 180 269 171 258 246 247 258 252 238 241 248 255
56 50 42 39 36 32 28 26 20 13 24 76 356 344 98 328 23 66 360 351 20 351 307 278 308 276 255 263 278 255 232 239 250 188 203 175 204 207 274 200 257 261 229 230 229 167 185
58 54 47 42 37 35 32 31 31 30 41 86 12 342 73 294 70 43 8 338 15 323 269 310 6 325 335 306 279 267 246 246 243 243 219 229 178 219 281 107 263 299 278 168 111 78 77
59 54 49 43 37 36 33 33 33 35 43 63 5 49 67 72 17 11 352 356 343 338 327 312 10 316 309 315 322 332 310 333 77 43 334 246 228 252 249 233 280 158 201 169 137 149 170
55 50 47 43 39 37 34 34 32 30 31 63 39 345 75 113 8 281 322 25 299 328 339 327 347 320 27 57 27 275 268 319 304 318 20 14 28 222 212 257 251 205 78 87 120 185 167
54 50 45 39 35 33 30 30 29 25 27 65 27 6 83 105 292 6 64 258 341 50 241 328 332 345 12 45 306 246 260 289 285 303 345 317 314 253 262 268 299 153 152 61 183 193 156
46 42 38 35 31 28 26 25 23 22 18 45 299 17 92 112 315 34 359 28 32 68 110 282 28 347 0 32 20 296 292 281 331 285 238 211 227 232 313 279 292 134 102 200 132 88 123
42 37 31 28 24 20 17 16 15 15 16 18 23 357 352 86 204 252 276 199 198 204 153 335 182 302 319 327 356 3 307 344 182 272 293 288 205 240 205 240 18 349 89 121 129 146 143